CZ-2C DEB

Satellite information

Favourite Embed

Satellite Type and Status

DEBRISDECAYED

Key statistics

Satellite CZ-2C DEB at a glance.

Uptime

5103

Days in orbit

Revolutions

≈ 16.2

Per day

Orbit

SSO

Sun Synchronous Orbit

Inclination

98.3

Latest

Satellite identification and parameters

Extended collection of information and parameters for CZ-2C DEB.

Object identification

Identified? True

Debris? True

Object name: CZ-2C DEB

International designator: 2011-039E

Object number (NORAD): 37769

Object ID (CCSDS): 37769

Country: PEOPLES REPUBLIC OF CHINA (PRC)

Current information (Y/N): Y

RCS size: SMALL

Orbital parameters

Decay date: July 18, 2025

Period: 88.619 minutes

Inclination: 98.3388 deg

SMA: 6584.338 km

Apoapsis: 217.264 km

Periapsis: 195.143 km

RAAN: 166.2002 deg

Eccentricy: 0.0016798

Argument of periapsis: 198.8068 deg

Mean anomaly: 161.2602 deg

Mean motion: 16.24929569 rev/day

Mean motion (dot): 0.11549469 rev/day2

B* drag term: 0.0040074 1/REarth

Two-line elements (TLE)

Creation date: July 13, 2025, 7:20 p.m.

Reference frame: TEME

Reference center: EARTH

Epoch: July 13, 2025, 2:43 a.m. UTC

TLE line 0: 0 CZ-2C DEB

TLE line 1: 1 37769U 11039E 25194.11369688 .11549469 30138-5 40074-2 0 9995

TLE line 2: 2 37769 98.3388 166.2002 0016798 198.8068 161.2602 16.24929569746379

Live tracking on map

Satellite CZ-2C DEB has decayed and is no longer in orbit. No tracking available.

In-orbit conjunctions

Satellite CZ-2C DEB has decayed and is no longer in orbit. No conjunctions available.

Associated space launch

CZ-2C DEB was lifted into orbit during the mission ‘Long March 2C | Shijian 10-02’, on board a Long March 2 space rocket.

The launch took place on July 29, 2011, 7:42 a.m. from Launch Area 94 (SLS-2 / 603).

For more information about the launch, click the button.

Launch to space Long March 2C | Shijian 10-02
Long March 2C | Shijian 10-02

Agency: N/A

Status: Launch Successful

Launch date: July 29, 2011, 7:42 a.m. UTC

Rocket: Long March 2

Launch pad: Launch Area 94 (SLS-2 / 603)

Location: Jiuquan Satellite Launch Center, People's Republic of China

...

Latest news about this satellite

There are no fresh news available about this satellite. Check back as we update our databases every day.


Newsletter sign-up

Weekly statistics, charts and insights to help you stay on top of the space industry.